Tracking 20621 objects as of 29-Mar-2020
HD Live streaming from Space Station
objects crossing your sky now

COSMOS 970 DEB

Track COSMOS 970 DEB now!
10-day predictions


NORAD ID: 10886
Int'l Code: 1977-121AH
Perigee: 921.7 km
Apogee: 1,079.6 km
Inclination: 65.8 °
Period: 105.0 minutes
Semi major axis: 7371 km
RCS: 0.0098 m2 (small)
Launch date: December 21, 1977
Source: Commonwealth of Independent States (former USSR) (CIS)
Launch site: TYURATAM MISSILE AND SPACE COMPLEX (TTMTR)

Note: This is SATELLITE DEBRIS
aabbcc
Your satellite tracking list
Your tracking list is empty




NASA's NSSDC Master Catalog

Two Line Element Set (TLE):
1 10886U 77121AH  20089.59790769 -.00000013 +00000-0 +70903-4 0  9990
2 10886 065.8451 165.8407 0107116 167.0992 307.0502 13.71682927108298
Source of the keplerian elements: AFSPC